TimeCDT,TemperatureF,Dew PointF,Humidity,Sea Level PressureIn,VisibilityMPH,Wind Direction,Wind SpeedMPH,Gust SpeedMPH,PrecipitationIn,Events,Conditions,WindDirDegrees,DateUTC
12:14 AM,28.4,24.8,86,29.98,5.0,SSW,3.5,-,N/A,,Clear,210,2013-03-30 05:14:00
12:34 AM,28.4,24.8,86,29.98,5.0,Calm,Calm,-,N/A,,Clear,0,2013-03-30 05:34:00
12:54 AM,28.4,24.8,86,29.97,5.0,Calm,Calm,-,N/A,,Clear,0,2013-03-30 05:54:00
1:14 AM,28.4,24.8,86,29.96,5.0,Calm,Calm,-,N/A,,Clear,0,2013-03-30 06:14:00
1:34 AM,28.4,24.8,86,29.95,5.0,Calm,Calm,-,N/A,,Scattered Clouds,0,2013-03-30 06:34:00
1:54 AM,26.6,23.0,86,29.95,5.0,Calm,Calm,-,N/A,,Scattered Clouds,0,2013-03-30 06:54:00
2:14 AM,26.6,23.0,86,29.94,4.0,Calm,Calm,-,N/A,,Clear,0,2013-03-30 07:14:00
2:34 AM,26.6,23.0,86,29.94,4.0,South,3.5,-,N/A,,Clear,180,2013-03-30 07:34:00
2:54 AM,26.6,23.0,86,29.92,5.0,Calm,Calm,-,N/A,,Clear,0,2013-03-30 07:54:00
3:14 AM,26.6,24.8,93,29.92,5.0,SSW,3.5,-,N/A,,Clear,210,2013-03-30 08:14:00
3:34 AM,26.6,23.0,86,29.92,4.0,Calm,Calm,-,N/A,,Clear,0,2013-03-30 08:34:00
3:54 AM,26.6,24.8,93,29.91,5.0,Calm,Calm,-,N/A,,Clear,0,2013-03-30 08:54:00
4:14 AM,24.8,21.2,86,29.91,4.0,Calm,Calm,-,N/A,,Clear,0,2013-03-30 09:14:00
4:34 AM,24.8,19.4,80,29.90,2.5,Calm,Calm,-,N/A,,Clear,0,2013-03-30 09:34:00
4:54 AM,24.8,21.2,86,29.90,2.5,Calm,Calm,-,N/A,,Mostly Cloudy,0,2013-03-30 09:54:00
5:14 AM,26.6,23.0,86,29.90,4.0,WSW,3.5,-,N/A,,Scattered Clouds,240,2013-03-30 10:14:00
5:34 AM,26.6,23.0,86,29.90,4.0,WSW,4.6,-,N/A,,Clear,250,2013-03-30 10:34:00
5:54 AM,26.6,21.2,80,29.89,3.0,West,4.6,-,N/A,,Clear,260,2013-03-30 10:54:00
6:14 AM,26.6,23.0,86,29.89,3.0,WSW,3.5,-,N/A,,Scattered Clouds,240,2013-03-30 11:14:00
6:34 AM,26.6,23.0,86,29.89,3.0,WSW,5.8,-,N/A,,Mostly Cloudy,250,2013-03-30 11:34:00
6:54 AM,26.6,23.0,86,29.89,3.0,WSW,6.9,-,N/A,,Mostly Cloudy,250,2013-03-30 11:54:00
7:14 AM,26.6,21.2,80,29.89,2.5,West,5.8,-,N/A,,Scattered Clouds,270,2013-03-30 12:14:00
7:34 AM,26.6,21.2,80,29.89,3.0,WSW,9.2,-,N/A,,Clear,250,2013-03-30 12:34:00
7:54 AM,26.6,23.0,86,29.89,3.0,WSW,5.8,-,N/A,,Clear,250,2013-03-30 12:54:00
8:14 AM,26.6,23.0,86,29.89,3.0,West,5.8,-,N/A,,Clear,260,2013-03-30 13:14:00
8:34 AM,28.4,24.8,86,29.89,4.0,WSW,5.8,-,N/A,,Clear,240,2013-03-30 13:34:00
8:54 AM,28.4,24.8,86,29.88,4.0,West,4.6,-,N/A,,Clear,260,2013-03-30 13:54:00
9:14 AM,30.2,26.6,86,29.88,5.0,West,8.1,-,N/A,,Clear,260,2013-03-30 14:14:00
9:34 AM,30.2,26.6,86,29.88,5.0,West,5.8,-,N/A,,Haze,260,2013-03-30 14:34:00
9:54 AM,32.0,26.6,80,29.88,7.0,West,6.9,-,N/A,,Clear,260,2013-03-30 14:54:00
10:14 AM,33.8,28.4,81,29.88,7.0,WSW,6.9,-,N/A,,Clear,250,2013-03-30 15:14:00
10:34 AM,33.8,28.4,81,29.88,7.0,West,6.9,-,N/A,,Clear,260,2013-03-30 15:34:00
10:54 AM,35.6,28.4,75,29.88,7.0,West,8.1,-,N/A,,Scattered Clouds,260,2013-03-30 15:54:00
11:14 AM,35.6,28.4,75,29.88,7.0,West,5.8,-,N/A,,Scattered Clouds,260,2013-03-30 16:14:00
11:34 AM,37.4,28.4,70,29.88,7.0,WSW,8.1,-,N/A,,Clear,250,2013-03-30 16:34:00
11:54 AM,37.4,28.4,70,29.88,10.0,West,8.1,-,N/A,,Clear,260,2013-03-30 16:54:00
12:14 PM,37.4,28.4,70,29.88,7.0,SW,9.2,-,N/A,,Clear,230,2013-03-30 17:14:00
12:34 PM,39.2,30.2,70,29.88,7.0,SW,8.1,-,N/A,,Clear,220,2013-03-30 17:34:00
12:54 PM,41.0,30.2,65,29.88,10.0,WSW,4.6,-,N/A,,Clear,250,2013-03-30 17:54:00
1:14 PM,44.6,30.2,57,29.87,10.0,West,8.1,-,N/A,,Clear,260,2013-03-30 18:14:00
1:34 PM,44.6,28.4,53,29.87,10.0,West,8.1,-,N/A,,Clear,280,2013-03-30 18:34:00
1:54 PM,46.4,28.4,50,29.86,10.0,WNW,9.2,-,N/A,,Clear,300,2013-03-30 18:54:00
2:14 PM,46.4,26.6,46,29.86,10.0,WNW,9.2,-,N/A,,Clear,290,2013-03-30 19:14:00
2:34 PM,46.4,26.6,46,29.86,10.0,WNW,10.4,18.4,N/A,,Clear,290,2013-03-30 19:34:00
2:54 PM,44.6,28.4,53,29.86,10.0,West,10.4,-,N/A,,Clear,260,2013-03-30 19:54:00
3:14 PM,42.8,30.2,61,29.86,10.0,SW,10.4,-,N/A,,Clear,230,2013-03-30 20:14:00
3:34 PM,42.8,30.2,61,29.86,10.0,SW,11.5,-,N/A,,Clear,230,2013-03-30 20:34:00
3:54 PM,42.8,30.2,61,29.86,10.0,SW,10.4,-,N/A,,Clear,230,2013-03-30 20:54:00
4:14 PM,44.6,30.2,57,29.85,10.0,SW,5.8,-,N/A,,Clear,230,2013-03-30 21:14:00
4:34 PM,44.6,30.2,57,29.85,10.0,SW,4.6,-,N/A,,Clear,230,2013-03-30 21:34:00
4:53 PM,44.6,28.4,53,29.85,10.0,NW,12.7,-,N/A,,Clear,310,2013-03-30 21:53:00
5:14 PM,44.6,26.6,49,29.85,10.0,WNW,9.2,-,N/A,,Clear,300,2013-03-30 22:14:00
5:34 PM,44.6,26.6,49,29.85,10.0,NW,11.5,-,N/A,,Clear,310,2013-03-30 22:34:00
5:54 PM,42.8,21.2,42,29.85,10.0,NW,13.8,17.3,N/A,,Clear,310,2013-03-30 22:54:00
6:14 PM,41.0,21.2,45,29.85,10.0,NW,13.8,-,N/A,,Scattered Clouds,310,2013-03-30 23:14:00
6:34 PM,42.8,21.2,42,29.85,10.0,WNW,12.7,-,N/A,,Scattered Clouds,300,2013-03-30 23:34:00
6:54 PM,41.0,23.0,49,29.84,10.0,WNW,11.5,-,N/A,,Scattered Clouds,300,2013-03-30 23:54:00
7:14 PM,41.0,24.8,53,29.84,10.0,NW,10.4,-,N/A,,Mostly Cloudy,310,2013-03-31 00:14:00
7:34 PM,39.2,24.8,56,29.83,10.0,WNW,10.4,-,N/A,,Mostly Cloudy,300,2013-03-31 00:34:00
7:54 PM,39.2,24.8,56,29.83,10.0,WNW,6.9,-,N/A,,Mostly Cloudy,300,2013-03-31 00:54:00
8:14 PM,39.2,24.8,56,29.83,10.0,West,4.6,-,N/A,,Overcast,280,2013-03-31 01:14:00
8:34 PM,39.2,24.8,56,29.83,10.0,West,10.4,-,N/A,,Overcast,280,2013-03-31 01:34:00
8:53 PM,37.4,26.6,65,29.83,10.0,West,6.9,-,N/A,,Overcast,260,2013-03-31 01:53:00
9:14 PM,37.4,26.6,65,29.83,10.0,West,5.8,-,N/A,,Overcast,260,2013-03-31 02:14:00
9:34 PM,35.6,26.6,70,29.83,10.0,West,9.2,-,N/A,,Mostly Cloudy,280,2013-03-31 02:34:00
9:54 PM,35.6,24.8,65,29.83,10.0,WNW,6.9,-,N/A,,Scattered Clouds,290,2013-03-31 02:54:00
10:14 PM,35.6,24.8,65,29.83,10.0,WNW,9.2,-,N/A,,Mostly Cloudy,290,2013-03-31 03:14:00
10:33 PM,35.6,24.8,65,29.82,10.0,West,6.9,-,N/A,,Overcast,280,2013-03-31 03:33:00
10:54 PM,33.8,26.6,75,29.82,10.0,West,6.9,-,N/A,,Mostly Cloudy,260,2013-03-31 03:54:00
11:13 PM,33.8,26.6,75,29.82,10.0,West,5.8,-,N/A,,Overcast,270,2013-03-31 04:13:00
11:34 PM,33.8,26.6,75,29.81,10.0,West,4.6,-,N/A,,Overcast,270,2013-03-31 04:34:00
11:54 PM,33.8,26.6,75,29.81,10.0,West,5.8,-,N/A,,Overcast,260,2013-03-31 04:54:00